{"data":{"norad_id":66608,"intl_designator":"2025-270W","name":"STARLINK-36036","alt_names":[],"object_type":"PAYLOAD","status":"ACTIVE","operator":null,"country":"US","launch_date":"2025-11-22","launch_site_code":"AFETR","launch_vehicle":null,"mission":null,"orbit_class":"UNKNOWN","rcs_meters":null,"size_class":null,"mass_kg":null,"dimensions":null,"purposes":["comms"],"wikipedia_slug":null,"has_3d_model":false,"image_url":null,"decayed_at":null,"tle_current":{"epoch":"2026-09-20T09:05:02.508864Z","epoch_age_seconds":97557,"freshness":"FRESH","line1":"1 66608U 25270W   26263.37850126  .00013305  00000+0  49186-3 0  9995","line2":"2 66608  43.0000  36.4428 0001303 273.9719  86.0983 15.27599326 47326","mean_motion":15.27599326,"eccentricity":0.0001303,"inclination_deg":43,"raan_deg":36.4428,"arg_perigee_deg":273.9719,"mean_anomaly_deg":86.0983,"bstar":0.00049186,"rev_number":4732,"period_min":94.265556123975,"perigee_km":482.09722264519,"apogee_km":483.88523266132,"semimajor_km":6861.1282276533,"source":"CELESTRAK","updated_at":"2026-09-21T09:00:35.979911Z"}}}